Location: ????????
(48.4751°N, 37.6926°E)
Time: 13:08:44
(UTC+00:00)

Cosmos 1680 Rocket - Pass Details

Date: 20 January 2021
Orbit: 760 x 780 km, 74.1° (Epoch: 27 February)

Event Time Altitude Azimuth Distance (km) Brightness Sun altitude
Rises 16:36:23 0° 336° (NNW) 3,252 7.0 -24.0°
Reaches altitude 10° 16:38:47 10° 335° (NNW) 2,318 6.2 -24.4°
Maximum altitude 16:44:02 80° 249° (WSW) 783 3.5 -25.2°
Enters shadow 16:46:12 36° 168° (SSE) 1,193 4.3 -25.6°
